Year,Month,Day,Hour,Minute,Value (Times are PST for temperature in C)
2013,06,25,00,00,12.40
2013,06,25,00,01,12.40
2013,06,25,00,02,12.40
2013,06,25,00,03,12.40
2013,06,25,00,04,12.40
2013,06,25,00,05,12.40
2013,06,25,00,06,12.30
2013,06,25,00,07,12.30
2013,06,25,00,08,12.30
2013,06,25,00,09,12.30
2013,06,25,00,10,12.30
2013,06,25,00,11,12.30
2013,06,25,00,12,12.30
2013,06,25,00,13,12.30
2013,06,25,00,14,12.30
2013,06,25,00,15,12.30
2013,06,25,00,16,12.30
2013,06,25,00,17,12.30
2013,06,25,00,18,12.30
2013,06,25,00,19,12.30
2013,06,25,00,20,12.30
2013,06,25,00,21,12.30
2013,06,25,00,22,12.20
2013,06,25,00,23,12.20
2013,06,25,00,24,12.20
2013,06,25,00,25,12.20
2013,06,25,00,26,12.20
2013,06,25,00,27,12.20
2013,06,25,00,28,12.20
2013,06,25,00,29,12.20
2013,06,25,00,30,12.20
2013,06,25,00,31,12.20
2013,06,25,00,32,12.10
2013,06,25,00,33,12.10
2013,06,25,00,34,12.00
2013,06,25,00,35,12.00
2013,06,25,00,36,11.90
2013,06,25,00,37,11.90
2013,06,25,00,38,11.80
2013,06,25,00,39,11.80
2013,06,25,00,40,11.70
2013,06,25,00,41,11.70
2013,06,25,00,42,11.60
2013,06,25,00,43,11.50
2013,06,25,00,44,11.50
2013,06,25,00,45,11.40
2013,06,25,00,46,11.40
2013,06,25,00,47,11.40
2013,06,25,00,48,11.30
2013,06,25,00,49,11.30
2013,06,25,00,50,11.30
2013,06,25,00,51,11.20
2013,06,25,00,52,11.20
2013,06,25,00,53,11.20
2013,06,25,00,54,11.20
2013,06,25,00,55,11.20
2013,06,25,00,56,11.20
2013,06,25,00,57,11.10
2013,06,25,00,58,11.10
2013,06,25,00,59,11.10
2013,06,25,01,00,11.10
2013,06,25,01,01,11.10
2013,06,25,01,02,11.10
2013,06,25,01,03,11.10
2013,06,25,01,04,11.10
2013,06,25,01,05,11.10
2013,06,25,01,06,11.10
2013,06,25,01,07,11.10
2013,06,25,01,08,11.10
2013,06,25,01,09,11.10
2013,06,25,01,10,11.10
2013,06,25,01,11,11.00
2013,06,25,01,12,11.00
2013,06,25,01,13,11.00
2013,06,25,01,14,11.00
2013,06,25,01,15,11.00
2013,06,25,01,16,11.00
2013,06,25,01,17,11.00
2013,06,25,01,18,11.00
2013,06,25,01,19,11.00
2013,06,25,01,20,11.00
2013,06,25,01,21,11.00
2013,06,25,01,22,11.00
2013,06,25,01,23,11.00
2013,06,25,01,24,11.00
2013,06,25,01,25,11.00
2013,06,25,01,26,11.00
2013,06,25,01,27,11.00
2013,06,25,01,28,11.00
2013,06,25,01,29,11.00
2013,06,25,01,30,11.00
2013,06,25,01,31,11.00
2013,06,25,01,32,11.00
2013,06,25,01,33,11.00
2013,06,25,01,34,11.10
2013,06,25,01,35,11.10
2013,06,25,01,36,11.10
2013,06,25,01,37,11.10
2013,06,25,01,38,11.10
2013,06,25,01,39,11.10
2013,06,25,01,40,11.10
2013,06,25,01,41,11.10
2013,06,25,01,42,11.10
2013,06,25,01,43,11.10
2013,06,25,01,44,11.10
2013,06,25,01,45,11.10
2013,06,25,01,46,11.10
2013,06,25,01,47,11.10
2013,06,25,01,48,11.10
2013,06,25,01,49,11.10
2013,06,25,01,50,11.10
2013,06,25,01,51,11.10
2013,06,25,01,52,11.10
2013,06,25,01,53,11.10
2013,06,25,01,54,11.10
2013,06,25,01,55,11.10
2013,06,25,01,56,11.20
2013,06,25,01,57,11.20
2013,06,25,01,58,11.20
2013,06,25,01,59,11.20
2013,06,25,02,00,11.20
2013,06,25,02,01,11.20
2013,06,25,02,02,11.20
2013,06,25,02,03,11.20
2013,06,25,02,04,11.20
2013,06,25,02,05,11.20
2013,06,25,02,06,11.20
2013,06,25,02,07,11.20
2013,06,25,02,08,11.20
2013,06,25,02,09,11.30
2013,06,25,02,10,11.30
2013,06,25,02,11,11.30
2013,06,25,02,12,11.30
2013,06,25,02,13,11.30
2013,06,25,02,14,11.30
2013,06,25,02,15,11.30
2013,06,25,02,16,11.30
2013,06,25,02,17,11.30
2013,06,25,02,18,11.30
2013,06,25,02,19,11.30
2013,06,25,02,20,11.30
2013,06,25,02,21,11.30
2013,06,25,02,22,11.30
2013,06,25,02,23,11.30
2013,06,25,02,24,11.30
2013,06,25,02,25,11.30
2013,06,25,02,26,11.30
2013,06,25,02,27,11.30
2013,06,25,02,28,11.30
2013,06,25,02,29,11.30
2013,06,25,02,30,11.30
2013,06,25,02,31,11.30
2013,06,25,02,32,11.30
2013,06,25,02,33,11.30
2013,06,25,02,34,11.30
2013,06,25,02,35,11.30
2013,06,25,02,36,11.30
2013,06,25,02,37,11.30
2013,06,25,02,38,11.30
2013,06,25,02,39,11.30
2013,06,25,02,40,11.30
2013,06,25,02,41,11.30
2013,06,25,02,42,11.30
2013,06,25,02,43,11.30
2013,06,25,02,44,11.30
2013,06,25,02,45,11.30
2013,06,25,02,46,11.30
2013,06,25,02,47,11.30
2013,06,25,02,48,11.30
2013,06,25,02,49,11.40
2013,06,25,02,50,11.40
2013,06,25,02,51,11.40
2013,06,25,02,52,11.40
2013,06,25,02,53,11.50
2013,06,25,02,54,11.50
2013,06,25,02,55,11.60
2013,06,25,02,56,11.60
2013,06,25,02,57,11.60
2013,06,25,02,58,11.70
2013,06,25,02,59,11.70
2013,06,25,03,00,11.80
2013,06,25,03,01,11.80
2013,06,25,03,02,11.80
2013,06,25,03,03,11.90
2013,06,25,03,04,11.90
2013,06,25,03,05,11.90
2013,06,25,03,06,11.90
2013,06,25,03,07,12.00
2013,06,25,03,08,12.00
2013,06,25,03,09,12.00
2013,06,25,03,10,12.00
2013,06,25,03,11,11.90
2013,06,25,03,12,11.90
2013,06,25,03,13,11.90
2013,06,25,03,14,11.90
2013,06,25,03,15,12.00
2013,06,25,03,16,12.00
2013,06,25,03,17,12.00
2013,06,25,03,18,12.00
2013,06,25,03,19,12.00
2013,06,25,03,20,12.10
2013,06,25,03,21,12.10
2013,06,25,03,22,12.10
2013,06,25,03,23,12.10
2013,06,25,03,24,12.10
2013,06,25,03,25,12.10
2013,06,25,03,26,12.20
2013,06,25,03,27,12.20
2013,06,25,03,28,12.20
2013,06,25,03,29,12.20
2013,06,25,03,30,12.30
2013,06,25,03,31,12.30
2013,06,25,03,32,12.40
2013,06,25,03,33,12.40
2013,06,25,03,34,12.50
2013,06,25,03,35,12.50
2013,06,25,03,36,12.60
2013,06,25,03,37,12.60
2013,06,25,03,38,12.60
2013,06,25,03,39,12.70
2013,06,25,03,40,12.70
2013,06,25,03,41,12.70
2013,06,25,03,42,12.70
2013,06,25,03,43,12.80
2013,06,25,03,44,12.80
2013,06,25,03,45,12.80
2013,06,25,03,46,12.80
2013,06,25,03,47,12.80
2013,06,25,03,48,12.80
2013,06,25,03,49,12.80
2013,06,25,03,50,12.80
2013,06,25,03,51,12.80
2013,06,25,03,52,12.80
2013,06,25,03,53,12.80
2013,06,25,03,54,12.80
2013,06,25,03,55,12.80
2013,06,25,03,56,12.80
2013,06,25,03,57,12.80
2013,06,25,03,58,12.80
2013,06,25,03,59,12.80
2013,06,25,04,00,12.80
2013,06,25,04,01,12.80
2013,06,25,04,02,12.80
2013,06,25,04,03,12.80
2013,06,25,04,04,12.90
2013,06,25,04,05,12.90
2013,06,25,04,06,12.90
2013,06,25,04,07,12.90
2013,06,25,04,08,12.90
2013,06,25,04,09,12.90
2013,06,25,04,10,12.90
2013,06,25,04,11,12.90
2013,06,25,04,12,12.90
2013,06,25,04,13,12.90
2013,06,25,04,14,12.90
2013,06,25,04,15,12.90
2013,06,25,04,16,12.90
2013,06,25,04,17,12.90
2013,06,25,04,18,12.90
2013,06,25,04,19,12.90
2013,06,25,04,20,12.90
2013,06,25,04,21,12.90
2013,06,25,04,22,12.80
2013,06,25,04,23,12.80
2013,06,25,04,24,12.80
2013,06,25,04,25,12.80
2013,06,25,04,26,12.80
2013,06,25,04,27,12.80
2013,06,25,04,28,12.80
2013,06,25,04,29,12.80
2013,06,25,04,30,12.80
2013,06,25,04,31,12.80
2013,06,25,04,32,12.80
2013,06,25,04,33,12.70
2013,06,25,04,34,12.70
2013,06,25,04,35,12.70
2013,06,25,04,36,12.70
2013,06,25,04,37,12.70
2013,06,25,04,38,12.70
2013,06,25,04,39,12.70
2013,06,25,04,40,12.70
2013,06,25,04,41,12.70
2013,06,25,04,42,12.70
2013,06,25,04,43,12.70
2013,06,25,04,44,12.70
2013,06,25,04,45,12.70
2013,06,25,04,46,12.70
2013,06,25,04,47,12.70
2013,06,25,04,48,12.60
2013,06,25,04,49,12.60
2013,06,25,04,50,12.60
2013,06,25,04,51,12.60
2013,06,25,04,52,12.60
2013,06,25,04,53,12.60
2013,06,25,04,54,12.60
2013,06,25,04,55,12.60
2013,06,25,04,56,12.60
2013,06,25,04,57,12.60
2013,06,25,04,58,12.60
2013,06,25,04,59,12.60
2013,06,25,05,00,12.60
2013,06,25,05,01,12.60
2013,06,25,05,02,12.60
2013,06,25,05,03,12.60
2013,06,25,05,04,12.60
2013,06,25,05,05,12.60
2013,06,25,05,06,12.60
2013,06,25,05,07,12.60
2013,06,25,05,08,12.60
2013,06,25,05,09,12.60
2013,06,25,05,10,12.60
2013,06,25,05,11,12.60
2013,06,25,05,12,12.60
2013,06,25,05,13,12.60
2013,06,25,05,14,12.60
2013,06,25,05,15,12.60
2013,06,25,05,16,12.60
2013,06,25,05,17,12.60
2013,06,25,05,18,12.60
2013,06,25,05,19,12.50
2013,06,25,05,20,12.50
2013,06,25,05,21,12.50
2013,06,25,05,22,12.50
2013,06,25,05,23,12.50
2013,06,25,05,24,12.50
2013,06,25,05,25,12.50
2013,06,25,05,26,12.50
2013,06,25,05,27,12.50
2013,06,25,05,28,12.50
2013,06,25,05,29,12.50
2013,06,25,05,30,12.50
2013,06,25,05,31,12.50
2013,06,25,05,32,12.50
2013,06,25,05,33,12.40
2013,06,25,05,34,12.40
2013,06,25,05,35,12.40
2013,06,25,05,36,12.40
2013,06,25,05,37,12.40
2013,06,25,05,38,12.40
2013,06,25,05,39,12.40
2013,06,25,05,40,12.40
2013,06,25,05,41,12.40
2013,06,25,05,42,12.40
2013,06,25,05,43,12.40
2013,06,25,05,44,12.40
2013,06,25,05,45,12.40
2013,06,25,05,46,12.40
2013,06,25,05,47,12.40
2013,06,25,05,48,12.40
2013,06,25,05,49,12.40
2013,06,25,05,50,12.40
2013,06,25,05,51,12.40
2013,06,25,05,52,12.40
2013,06,25,05,53,12.40
2013,06,25,05,54,12.40
2013,06,25,05,55,12.40
2013,06,25,05,56,12.40
2013,06,25,05,57,12.40
2013,06,25,05,58,12.40
2013,06,25,05,59,12.40
2013,06,25,06,00,12.40
2013,06,25,06,01,12.40
2013,06,25,06,02,12.40
2013,06,25,06,03,12.40
2013,06,25,06,04,12.40
2013,06,25,06,05,12.40
2013,06,25,06,06,12.40
2013,06,25,06,07,12.40
2013,06,25,06,08,12.40
2013,06,25,06,09,12.40
2013,06,25,06,10,12.40
2013,06,25,06,11,12.40
2013,06,25,06,12,12.40
2013,06,25,06,13,12.40
2013,06,25,06,14,12.40
2013,06,25,06,15,12.40
2013,06,25,06,16,12.40
2013,06,25,06,17,12.40
2013,06,25,06,18,12.40
2013,06,25,06,19,12.40
2013,06,25,06,20,12.40
2013,06,25,06,21,12.40
2013,06,25,06,22,12.40
2013,06,25,06,23,12.40
2013,06,25,06,24,12.40
2013,06,25,06,25,12.40
2013,06,25,06,26,12.40
2013,06,25,06,27,12.40
2013,06,25,06,28,12.40
2013,06,25,06,29,12.40
2013,06,25,06,30,12.40
2013,06,25,06,31,12.40
2013,06,25,06,32,12.40
2013,06,25,06,33,12.40
2013,06,25,06,34,12.40
2013,06,25,06,35,12.40
2013,06,25,06,36,12.40
2013,06,25,06,37,12.50
2013,06,25,06,38,12.50
2013,06,25,06,39,12.50
2013,06,25,06,40,12.50
2013,06,25,06,41,12.50
2013,06,25,06,42,12.50
2013,06,25,06,43,12.50
2013,06,25,06,44,12.50
2013,06,25,06,45,12.50
2013,06,25,06,46,12.50
2013,06,25,06,47,12.50
2013,06,25,06,48,12.50
2013,06,25,06,49,12.50
2013,06,25,06,50,12.50
2013,06,25,06,51,12.50
2013,06,25,06,52,12.50
2013,06,25,06,53,12.50
2013,06,25,06,54,12.50
2013,06,25,06,55,12.50
2013,06,25,06,56,12.50
2013,06,25,06,57,12.50
2013,06,25,06,58,12.50
2013,06,25,06,59,12.50
2013,06,25,07,00,12.50
2013,06,25,07,01,12.50
2013,06,25,07,02,12.50
2013,06,25,07,03,12.50
2013,06,25,07,04,12.50
2013,06,25,07,05,12.50
2013,06,25,07,06,12.50
2013,06,25,07,07,12.50
2013,06,25,07,08,12.50
2013,06,25,07,09,12.50
2013,06,25,07,10,12.50
2013,06,25,07,11,12.50
2013,06,25,07,12,12.60
2013,06,25,07,13,12.60
2013,06,25,07,14,12.50
2013,06,25,07,15,12.50
2013,06,25,07,16,12.50
2013,06,25,07,17,12.50
2013,06,25,07,18,12.40
2013,06,25,07,19,12.40
2013,06,25,07,20,12.40
2013,06,25,07,21,12.40
2013,06,25,07,22,12.40
2013,06,25,07,23,12.40
2013,06,25,07,24,12.40
2013,06,25,07,25,12.40
2013,06,25,07,26,12.40
2013,06,25,07,27,12.40
2013,06,25,07,28,12.50
2013,06,25,07,29,12.50
2013,06,25,07,30,12.50
2013,06,25,07,31,12.50
2013,06,25,07,32,12.50
2013,06,25,07,33,12.50
2013,06,25,07,34,12.50
2013,06,25,07,35,12.50
2013,06,25,07,36,12.50
2013,06,25,07,37,12.50
2013,06,25,07,38,12.50
2013,06,25,07,39,12.60
2013,06,25,07,40,12.60
2013,06,25,07,41,12.60
2013,06,25,07,42,12.60
2013,06,25,07,43,12.60
2013,06,25,07,44,12.60
2013,06,25,07,45,12.60
2013,06,25,07,46,12.60
2013,06,25,07,47,12.60
2013,06,25,07,48,12.60
2013,06,25,07,49,12.60
2013,06,25,07,50,12.60
2013,06,25,07,51,12.60
2013,06,25,07,52,12.60
2013,06,25,07,53,12.60
2013,06,25,07,54,12.60
2013,06,25,07,55,12.60
2013,06,25,07,56,12.70
2013,06,25,07,57,12.70
2013,06,25,07,58,12.70
2013,06,25,07,59,12.70
2013,06,25,08,00,12.70
2013,06,25,08,01,12.70
2013,06,25,08,02,12.80
2013,06,25,08,03,12.80
2013,06,25,08,04,12.80
2013,06,25,08,05,12.80
2013,06,25,08,06,12.80
2013,06,25,08,07,12.80
2013,06,25,08,08,12.90
2013,06,25,08,09,12.90
2013,06,25,08,10,12.90
2013,06,25,08,11,12.90
2013,06,25,08,12,13.00
2013,06,25,08,13,13.00
2013,06,25,08,14,13.00
2013,06,25,08,15,13.00
2013,06,25,08,16,13.10
2013,06,25,08,17,13.10
2013,06,25,08,18,13.10
2013,06,25,08,19,13.10
2013,06,25,08,20,13.10
2013,06,25,08,21,13.10
2013,06,25,08,22,13.10
2013,06,25,08,23,13.20
2013,06,25,08,24,13.20
2013,06,25,08,25,13.20
2013,06,25,08,26,13.20
2013,06,25,08,27,13.20
2013,06,25,08,28,13.30
2013,06,25,08,29,13.30
2013,06,25,08,30,13.30
2013,06,25,08,31,13.30
2013,06,25,08,32,13.30
2013,06,25,08,33,13.30
2013,06,25,08,34,13.30
2013,06,25,08,35,13.30
2013,06,25,08,36,13.40
2013,06,25,08,37,13.40
2013,06,25,08,38,13.40
2013,06,25,08,39,13.40
2013,06,25,08,40,13.40
2013,06,25,08,41,13.40
2013,06,25,08,42,13.40
2013,06,25,08,43,13.40
2013,06,25,08,44,13.40
2013,06,25,08,45,13.40
2013,06,25,08,46,13.50
2013,06,25,08,47,13.50
2013,06,25,08,48,13.50
2013,06,25,08,49,13.50
2013,06,25,08,50,13.50
2013,06,25,08,51,13.50
2013,06,25,08,52,13.50
2013,06,25,08,53,13.60
2013,06,25,08,54,13.60
2013,06,25,08,55,13.60
2013,06,25,08,56,13.60
2013,06,25,08,57,13.60
2013,06,25,08,58,13.60
2013,06,25,08,59,13.60
2013,06,25,09,00,13.60
2013,06,25,09,01,13.70
2013,06,25,09,02,13.70
2013,06,25,09,03,13.70
2013,06,25,09,04,13.70
2013,06,25,09,05,13.70
2013,06,25,09,06,13.70
2013,06,25,09,07,13.70
2013,06,25,09,08,13.70
2013,06,25,09,09,13.70
2013,06,25,09,10,13.70
2013,06,25,09,11,13.70
2013,06,25,09,12,13.70
2013,06,25,09,13,13.70
2013,06,25,09,14,13.70
2013,06,25,09,15,13.70
2013,06,25,09,16,13.80
2013,06,25,09,17,13.80
2013,06,25,09,18,13.80
2013,06,25,09,19,13.80
2013,06,25,09,20,13.80
2013,06,25,09,21,13.80
2013,06,25,09,22,13.80
2013,06,25,09,23,13.80
2013,06,25,09,24,13.80
2013,06,25,09,25,13.80
2013,06,25,09,26,13.80
2013,06,25,09,27,13.80
2013,06,25,09,28,13.80
2013,06,25,09,29,13.80
2013,06,25,09,30,13.80
2013,06,25,09,31,13.90
2013,06,25,09,32,13.90
2013,06,25,09,33,13.90
2013,06,25,09,34,13.90
2013,06,25,09,35,13.90
2013,06,25,09,36,13.90
2013,06,25,09,37,13.90
2013,06,25,09,38,13.90
2013,06,25,09,39,14.00
2013,06,25,09,40,14.00
2013,06,25,09,41,14.00
2013,06,25,09,42,14.10
2013,06,25,09,43,14.10
2013,06,25,09,44,14.10
2013,06,25,09,45,14.10
2013,06,25,09,46,14.10
2013,06,25,09,47,14.10
2013,06,25,09,48,14.20
2013,06,25,09,49,14.20
2013,06,25,09,50,14.20
2013,06,25,09,51,14.30
2013,06,25,09,52,14.30
2013,06,25,09,53,14.40
2013,06,25,09,54,14.50
2013,06,25,09,55,14.60
2013,06,25,09,56,14.70
2013,06,25,09,57,14.70
2013,06,25,09,58,14.80
2013,06,25,09,59,14.80
2013,06,25,10,00,14.90
2013,06,25,10,01,14.90
2013,06,25,10,02,14.90
2013,06,25,10,03,14.90
2013,06,25,10,04,15.00
2013,06,25,10,05,15.00
2013,06,25,10,06,15.00
2013,06,25,10,07,15.00
2013,06,25,10,08,15.10
2013,06,25,10,09,15.00
2013,06,25,10,10,15.10
2013,06,25,10,11,15.10
2013,06,25,10,12,15.10
2013,06,25,10,13,15.10
2013,06,25,10,14,15.10
2013,06,25,10,15,15.10
2013,06,25,10,16,15.10
2013,06,25,10,17,15.10
2013,06,25,10,18,15.10
2013,06,25,10,19,15.10
2013,06,25,10,20,15.10
2013,06,25,10,21,15.10
2013,06,25,10,22,15.10
2013,06,25,10,23,15.10
2013,06,25,10,24,15.00
2013,06,25,10,25,15.00
2013,06,25,10,26,15.00
2013,06,25,10,27,15.00
2013,06,25,10,28,15.10
2013,06,25,10,29,15.10
2013,06,25,10,30,15.10
2013,06,25,10,31,15.10
2013,06,25,10,32,15.10
2013,06,25,10,33,15.10
2013,06,25,10,34,15.10
2013,06,25,10,35,15.10
2013,06,25,10,36,15.10
2013,06,25,10,37,15.20
2013,06,25,10,38,15.20
2013,06,25,10,39,15.20
2013,06,25,10,40,15.20
2013,06,25,10,41,15.20
2013,06,25,10,42,15.20
2013,06,25,10,43,15.30
2013,06,25,10,44,15.30
2013,06,25,10,45,15.30
2013,06,25,10,46,15.40
2013,06,25,10,47,15.40
2013,06,25,10,48,15.50
2013,06,25,10,49,15.50
2013,06,25,10,50,15.60
2013,06,25,10,51,15.60
2013,06,25,10,52,15.60
2013,06,25,10,53,15.50
2013,06,25,10,54,15.40
2013,06,25,10,55,15.20
2013,06,25,10,56,15.10
2013,06,25,10,57,15.00
2013,06,25,10,58,14.80
2013,06,25,10,59,14.60
2013,06,25,11,00,14.50
2013,06,25,11,01,14.40
2013,06,25,11,02,14.30
2013,06,25,11,03,14.20
2013,06,25,11,04,14.20
2013,06,25,11,05,14.10
2013,06,25,11,06,14.10
2013,06,25,11,07,14.00
2013,06,25,11,08,13.90
2013,06,25,11,09,13.90
2013,06,25,11,10,13.80
2013,06,25,11,11,13.70
2013,06,25,11,12,13.70
2013,06,25,11,13,13.70
2013,06,25,11,14,13.70
2013,06,25,11,15,13.70
2013,06,25,11,16,13.70
2013,06,25,11,17,13.70
2013,06,25,11,18,13.80
2013,06,25,11,19,13.80
2013,06,25,11,20,13.80
2013,06,25,11,21,13.90
2013,06,25,11,22,14.00
2013,06,25,11,23,14.10
2013,06,25,11,24,14.20
2013,06,25,11,25,14.20
2013,06,25,11,26,14.30
2013,06,25,11,27,14.30
2013,06,25,11,28,14.40
2013,06,25,11,29,14.40
2013,06,25,11,30,14.40
2013,06,25,11,31,14.50
2013,06,25,11,32,14.50
2013,06,25,11,33,14.60
2013,06,25,11,34,14.60
2013,06,25,11,35,14.70
2013,06,25,11,36,14.70
2013,06,25,11,37,14.80
2013,06,25,11,38,14.90
2013,06,25,11,39,15.00
2013,06,25,11,40,15.10
2013,06,25,11,41,15.20
2013,06,25,11,42,15.40
2013,06,25,11,43,15.50
2013,06,25,11,44,15.60
2013,06,25,11,45,15.70
2013,06,25,11,46,15.80
2013,06,25,11,47,16.00
2013,06,25,11,48,16.10
2013,06,25,11,49,16.10
2013,06,25,11,50,16.20
2013,06,25,11,51,16.30
2013,06,25,11,52,16.40
2013,06,25,11,53,16.50
2013,06,25,11,54,16.50
2013,06,25,11,55,16.60
2013,06,25,11,56,16.60
2013,06,25,11,57,16.60
2013,06,25,11,58,16.70
2013,06,25,11,59,16.70
2013,06,25,12,00,16.80
2013,06,25,12,01,16.80
2013,06,25,12,02,16.80
2013,06,25,12,03,16.80
2013,06,25,12,04,16.80
2013,06,25,12,05,16.70
2013,06,25,12,06,16.70
2013,06,25,12,07,16.70
2013,06,25,12,08,16.60
2013,06,25,12,09,16.50
2013,06,25,12,10,16.40
2013,06,25,12,11,16.40
2013,06,25,12,12,16.30
2013,06,25,12,13,16.30
2013,06,25,12,14,16.30
2013,06,25,12,15,16.30
2013,06,25,12,16,16.30
2013,06,25,12,17,16.30
2013,06,25,12,18,16.30
2013,06,25,12,19,16.40
2013,06,25,12,20,16.50
2013,06,25,12,21,16.50
2013,06,25,12,22,16.50
2013,06,25,12,23,16.50
2013,06,25,12,24,16.50
2013,06,25,12,25,16.30
2013,06,25,12,26,16.20
2013,06,25,12,27,16.00
2013,06,25,12,28,15.80
2013,06,25,12,29,15.70
2013,06,25,12,30,15.60
2013,06,25,12,31,15.50
2013,06,25,12,32,15.40
2013,06,25,12,33,15.30
2013,06,25,12,34,15.30
2013,06,25,12,35,15.30
2013,06,25,12,36,15.30
2013,06,25,12,37,15.30
2013,06,25,12,38,15.30
2013,06,25,12,39,15.30
2013,06,25,12,40,15.30
2013,06,25,12,41,15.40
2013,06,25,12,42,15.40
2013,06,25,12,43,15.40
2013,06,25,12,44,15.40
2013,06,25,12,45,15.40
2013,06,25,12,46,15.40
2013,06,25,12,47,15.40
2013,06,25,12,48,15.30
2013,06,25,12,49,15.10
2013,06,25,12,50,15.00
2013,06,25,12,51,14.80
2013,06,25,12,52,14.70
2013,06,25,12,53,14.50
2013,06,25,12,54,14.40
2013,06,25,12,55,14.30
2013,06,25,12,56,14.20
2013,06,25,12,57,14.10
2013,06,25,12,58,14.10
2013,06,25,12,59,14.00
2013,06,25,13,00,14.00
2013,06,25,13,01,14.00
2013,06,25,13,02,14.00
2013,06,25,13,03,14.00
2013,06,25,13,04,13.90
2013,06,25,13,05,13.90
2013,06,25,13,06,13.80
2013,06,25,13,07,13.80
2013,06,25,13,08,13.70
2013,06,25,13,09,13.70
2013,06,25,13,10,13.70
2013,06,25,13,11,13.60
2013,06,25,13,12,13.50
2013,06,25,13,13,13.50
2013,06,25,13,14,13.40
2013,06,25,13,15,13.40
2013,06,25,13,16,13.30
2013,06,25,13,17,13.30
2013,06,25,13,18,13.30
2013,06,25,13,19,13.40
2013,06,25,13,20,13.40
2013,06,25,13,21,13.40
2013,06,25,13,22,13.50
2013,06,25,13,23,13.50
2013,06,25,13,24,13.60
2013,06,25,13,25,13.70
2013,06,25,13,26,13.80
2013,06,25,13,27,13.90
2013,06,25,13,28,14.00
2013,06,25,13,29,14.10
2013,06,25,13,30,14.20
2013,06,25,13,31,14.30
2013,06,25,13,32,14.40
2013,06,25,13,33,14.50
2013,06,25,13,34,14.60
2013,06,25,13,35,14.60
2013,06,25,13,36,14.60
2013,06,25,13,37,14.60
2013,06,25,13,38,14.70
2013,06,25,13,39,14.70
2013,06,25,13,40,14.80
2013,06,25,13,41,14.80
2013,06,25,13,42,14.90
2013,06,25,13,43,15.00
2013,06,25,13,44,15.00
2013,06,25,13,45,15.10
2013,06,25,13,46,15.10
2013,06,25,13,47,15.20
2013,06,25,13,48,15.20
2013,06,25,13,49,15.30
2013,06,25,13,50,15.30
2013,06,25,13,51,15.30
2013,06,25,13,52,15.30
2013,06,25,13,53,15.40
2013,06,25,13,54,15.40
2013,06,25,13,55,15.40
2013,06,25,13,56,15.40
2013,06,25,13,57,15.40
2013,06,25,13,58,15.40
2013,06,25,13,59,15.40
2013,06,25,14,00,15.40
2013,06,25,14,01,15.40
2013,06,25,14,02,15.40
2013,06,25,14,03,15.40
2013,06,25,14,04,15.40
2013,06,25,14,05,15.40
2013,06,25,14,06,15.40
2013,06,25,14,07,15.50
2013,06,25,14,08,15.50
2013,06,25,14,09,15.50
2013,06,25,14,10,15.50
2013,06,25,14,11,15.60
2013,06,25,14,12,15.60
2013,06,25,14,13,15.60
2013,06,25,14,14,15.60
2013,06,25,14,15,15.60
2013,06,25,14,16,15.70
2013,06,25,14,17,15.70
2013,06,25,14,18,15.70
2013,06,25,14,19,15.70
2013,06,25,14,20,15.70
2013,06,25,14,21,15.80
2013,06,25,14,22,15.80
2013,06,25,14,23,15.80
2013,06,25,14,24,15.80
2013,06,25,14,25,15.80
2013,06,25,14,26,15.80
2013,06,25,14,27,15.80
2013,06,25,14,28,15.70
2013,06,25,14,29,15.70
2013,06,25,14,30,15.70
2013,06,25,14,31,15.70
2013,06,25,14,32,15.70
2013,06,25,14,33,15.70
2013,06,25,14,34,15.70
2013,06,25,14,35,15.70
2013,06,25,14,36,15.70
2013,06,25,14,37,15.70
2013,06,25,14,38,15.70
2013,06,25,14,39,15.70
2013,06,25,14,40,15.70
2013,06,25,14,41,15.70
2013,06,25,14,42,15.70
2013,06,25,14,43,15.80
2013,06,25,14,44,15.80
2013,06,25,14,45,15.80
2013,06,25,14,46,15.80
2013,06,25,14,47,15.90
2013,06,25,14,48,15.90
2013,06,25,14,49,15.90
2013,06,25,14,50,15.90
2013,06,25,14,51,15.90
2013,06,25,14,52,16.00
2013,06,25,14,53,16.00
2013,06,25,14,54,16.10
2013,06,25,14,55,16.10
2013,06,25,14,56,16.10
2013,06,25,14,57,16.20
2013,06,25,14,58,16.20
2013,06,25,14,59,16.20
2013,06,25,15,00,16.20
2013,06,25,15,01,16.20
2013,06,25,15,02,16.30
2013,06,25,15,03,16.30
2013,06,25,15,04,16.30
2013,06,25,15,05,16.30
2013,06,25,15,06,16.40
2013,06,25,15,07,16.40
2013,06,25,15,08,16.40
2013,06,25,15,09,16.50
2013,06,25,15,10,16.50
2013,06,25,15,11,16.60
2013,06,25,15,12,16.60
2013,06,25,15,13,16.60
2013,06,25,15,14,16.60
2013,06,25,15,15,16.70
2013,06,25,15,16,16.80
2013,06,25,15,17,16.80
2013,06,25,15,18,16.80
2013,06,25,15,19,16.80
2013,06,25,15,20,16.80
2013,06,25,15,21,16.80
2013,06,25,15,22,16.80
2013,06,25,15,23,16.80
2013,06,25,15,24,16.80
2013,06,25,15,25,16.80
2013,06,25,15,26,16.80
2013,06,25,15,27,16.90
2013,06,25,15,28,16.90
2013,06,25,15,29,16.90
2013,06,25,15,30,16.90
2013,06,25,15,31,16.90
2013,06,25,15,32,16.90
2013,06,25,15,33,16.90
2013,06,25,15,34,16.90
2013,06,25,15,35,16.90
2013,06,25,15,36,16.90
2013,06,25,15,37,17.00
2013,06,25,15,38,17.00
2013,06,25,15,39,17.10
2013,06,25,15,40,17.10
2013,06,25,15,41,17.10
2013,06,25,15,42,17.20
2013,06,25,15,43,17.30
2013,06,25,15,44,17.30
2013,06,25,15,45,17.30
2013,06,25,15,46,17.30
2013,06,25,15,47,17.30
2013,06,25,15,48,17.30
2013,06,25,15,49,17.40
2013,06,25,15,50,17.40
2013,06,25,15,51,17.50
2013,06,25,15,52,17.60
2013,06,25,15,53,17.70
2013,06,25,15,54,17.80
2013,06,25,15,55,17.90
2013,06,25,15,56,18.00
2013,06,25,15,57,18.00
2013,06,25,15,58,18.10
2013,06,25,15,59,18.10
2013,06,25,16,00,18.10
2013,06,25,16,01,18.10
2013,06,25,16,02,18.10
2013,06,25,16,03,18.20
2013,06,25,16,04,18.20
2013,06,25,16,05,18.20
2013,06,25,16,06,18.30
2013,06,25,16,07,18.40
2013,06,25,16,08,18.50
2013,06,25,16,09,18.60
2013,06,25,16,10,18.60
2013,06,25,16,11,18.70
2013,06,25,16,12,18.80
2013,06,25,16,13,18.80
2013,06,25,16,14,18.90
2013,06,25,16,15,19.00
2013,06,25,16,16,19.10
2013,06,25,16,17,19.20
2013,06,25,16,18,19.30
2013,06,25,16,19,19.30
2013,06,25,16,20,19.40
2013,06,25,16,21,19.50
2013,06,25,16,22,19.60
2013,06,25,16,23,19.60
2013,06,25,16,24,19.70
2013,06,25,16,25,19.70
2013,06,25,16,26,19.70
2013,06,25,16,27,19.60
2013,06,25,16,28,19.60
2013,06,25,16,29,19.50
2013,06,25,16,30,19.40
2013,06,25,16,31,19.30
2013,06,25,16,32,19.20
2013,06,25,16,33,19.20
2013,06,25,16,34,19.10
2013,06,25,16,35,19.00
2013,06,25,16,36,18.90
2013,06,25,16,37,18.80
2013,06,25,16,38,18.70
2013,06,25,16,39,18.60
2013,06,25,16,40,18.50
2013,06,25,16,41,18.50
2013,06,25,16,42,18.40
2013,06,25,16,43,18.40
2013,06,25,16,44,18.30
2013,06,25,16,45,18.20
2013,06,25,16,46,18.20
2013,06,25,16,47,18.10
2013,06,25,16,48,18.10
2013,06,25,16,49,18.00
2013,06,25,16,50,18.00
2013,06,25,16,51,17.90
2013,06,25,16,52,17.90
2013,06,25,16,53,17.90
2013,06,25,16,54,17.90
2013,06,25,16,55,17.90
2013,06,25,16,56,17.90
2013,06,25,16,57,18.00
2013,06,25,16,58,18.00
2013,06,25,16,59,18.10
2013,06,25,17,00,18.20
2013,06,25,17,01,18.40
2013,06,25,17,02,18.50
2013,06,25,17,03,18.60
2013,06,25,17,04,18.80
2013,06,25,17,05,18.80
2013,06,25,17,06,18.90
2013,06,25,17,07,18.90
2013,06,25,17,08,19.00
2013,06,25,17,09,19.10
2013,06,25,17,10,19.10
2013,06,25,17,11,19.20
2013,06,25,17,12,19.30
2013,06,25,17,13,19.40
2013,06,25,17,14,19.40
2013,06,25,17,15,19.50
2013,06,25,17,16,19.60
2013,06,25,17,17,19.60
2013,06,25,17,18,19.60
2013,06,25,17,19,19.60